CWOP Weather Reports


Display with metric or nautical units.
time (UTC)temp
F
wind
direction
speed
MPH
gust
MPH
rain 1hr
in
rain 24hr
in
rain mn
in
humidity
%
barometer
mb
20260906100515 69 101 0.0 2.0 0.00 0.00 0.00 96 1015.7
20260906100031 69 101 0.0 2.0 0.00 0.00 0.00 96 1015.7
20260906095513 69 101 1.0 2.0 0.00 0.00 0.00 96 1015.7
20260906095019 69 101 0.0 2.0 0.00 0.00 0.00 97 1015.7
20260906094534 69 101 0.0 2.0 0.00 0.00 0.00 97 1015.8
20260906094007 69 101 0.0 2.0 0.00 0.00 0.00 96 1015.7
20260906093508 69 101 0.0 0.0 0.00 0.00 0.00 96 1015.6
20260906093017 69 101 0.0 2.0 0.00 0.00 0.00 96 1015.5
20260906092518 69 101 0.0 2.0 0.00 0.00 0.00 96 1015.6
20260906092014 69 101 0.0 2.0 0.00 0.00 0.00 96 1015.6
20260906091528 69 101 0.0 2.0 0.00 0.00 0.00 97 1015.5
20260906091014 69 101 0.0 0.0 0.00 0.00 0.00 96 1015.6
20260906090515 69 101 0.0 2.0 0.00 0.00 0.00 96 1015.5
20260906090010 69 101 0.0 2.0 0.00 0.00 0.00 96 1015.5
20260906085508 69 101 0.0 2.0 0.00 0.00 0.00 96 1015.5
20260906085009 69 101 1.0 2.0 0.00 0.00 0.00 96 1015.4
20260906084523 69 113 1.0 2.0 0.00 0.00 0.00 96 1015.4
20260906084016 69 69 0.0 2.0 0.00 0.00 0.00 96 1015.4
20260906083516 69 141 0.0 3.0 0.00 0.00 0.00 96 1015.3
20260906083031 69 128 1.0 3.0 0.00 0.00 0.00 96 1015.2
20260906082519 70 65 2.0 3.0 0.00 0.00 0.00 96 1015.4
20260906082008 70 83 1.0 2.0 0.00 0.00 0.00 96 1015.3
20260906081520 70 88 0.0 0.0 0.00 0.00 0.00 97 1015.4
20260906081011 70 88 0.0 0.0 0.00 0.00 0.00 97 1015.5
20260906080514 70 10 0.0 0.0 0.00 0.00 0.00 97 1015.6
20260906080037 69 10 0.0 0.0 0.00 0.00 0.00 97 1015.5
20260906075515 69 10 0.0 0.0 0.00 0.00 0.00 97 1015.4
20260906075016 69 10 0.0 0.0 0.00 0.00 0.00 96 1015.4
20260906074533 69 10 0.0 0.0 0.00 0.00 0.00 96 1015.4
20260906074009 69 78 0.0 0.0 0.00 0.00 0.00 97 1015.3
20260906073510 69 78 0.0 0.0 0.00 0.00 0.00 96 1015.3
20260906073023 69 87 0.0 0.0 0.00 0.00 0.00 96 1015.3
20260906072512 69 24 0.0 0.0 0.00 0.00 0.00 97 1015.2
20260906072014 69 24 0.0 0.0 0.00 0.00 0.00 97 1015.3
20260906071532 68 24 0.0 0.0 0.00 0.00 0.00 97 1015.5
20260906071024 68 24 0.0 0.0 0.00 0.00 0.00 97 1015.5
20260906070521 68 24 0.0 0.0 0.00 0.00 0.00 96 1015.6
20260906070015 68 24 0.0 0.0 0.00 0.00 0.00 96 1015.5
20260906065512 68 24 0.0 0.0 0.00 0.00 0.00 95 1015.5
20260906065012 68 24 0.0 0.0 0.00 0.00 0.00 96 1015.5
20260906064527 68 24 0.0 0.0 0.00 0.00 0.00 96 1015.5
20260906064015 68 24 0.0 0.0 0.00 0.00 0.00 96 1015.4
20260906063516 68 67 0.0 0.0 0.00 0.00 0.00 96 1015.4
20260906063031 68 28 0.0 0.0 0.00 0.00 0.00 95 1015.4
20260906062516 68 27 0.0 0.0 0.00 0.00 0.00 95 1015.4
20260906062010 68 28 0.0 0.0 0.00 0.00 0.00 96 1015.5
20260906061521 69 28 0.0 0.0 0.00 0.00 0.00 96 1015.6
20260906061017 68 39 0.0 0.0 0.00 0.00 0.00 96 1015.6
20260906060514 68 40 0.0 0.0 0.00 0.00 0.00 96 1015.7
20260906060027 68 126 0.0 0.0 0.00 0.00 0.00 95 1015.7
20260906055515 68 91 0.0 1.0 0.00 0.00 0.00 95 1015.8
20260906055018 68 109 0.0 1.0 0.00 0.00 0.00 95 1015.9
20260906054532 68 109 0.0 2.0 0.00 0.00 0.00 95 1015.9
20260906054010 68 109 0.0 2.0 0.00 0.00 0.00 95 1016.1
20260906053512 69 109 0.0 3.0 0.00 0.00 0.00 95 1016.1
20260906053024 69 109 0.0 3.0 0.00 0.00 0.00 95 1016.1
20260906052515 69 114 1.0 3.0 0.00 0.00 0.00 94 1016.2
20260906052015 70 82 0.0 2.0 0.00 0.00 0.00 96 1016.2
20260906051530 70 82 0.0 3.0 0.00 0.00 0.00 96 1016.3
20260906051021 70 82 1.0 3.0 0.00 0.00 0.00 97 1016.3
20260906050522 70 105 1.0 2.0 0.00 0.00 0.00 97 1016.3
20260906050018 69 138 0.0 2.0 0.00 0.00 0.00 96 1016.4
20260906045516 69 211 0.0 2.0 0.00 0.00 0.00 96 1016.5
20260906045016 69 316 1.0 2.0 0.00 0.00 0.00 96 1016.5
20260906044529 69 113 0.0 2.0 0.00 0.00 0.00 96 1016.4
20260906044020 69 72 0.0 2.0 0.00 0.00 0.00 96 1016.4
20260906043514 68 72 1.0 2.0 0.00 0.00 0.00 96 1016.5
20260906043033 68 94 0.0 2.0 0.00 0.00 0.00 95 1016.5
20260906042519 68 94 1.0 2.0 0.00 0.00 0.00 95 1016.4
20260906042010 68 94 1.0 2.0 0.00 0.00 0.00 95 1016.3
20260906041524 68 86 1.0 2.0 0.00 0.00 0.00 95 1016.1
20260906041014 68 74 0.0 2.0 0.00 0.00 0.00 95 1016.1
20260906040513 68 74 0.0 2.0 0.00 0.00 0.00 94 1016.2
20260906040031 69 74 0.0 2.0 0.00 0.00 0.00 94 1016.3
20260906035517 69 74 0.0 2.0 0.00 0.00 0.00 95 1016.2
20260906035017 69 74 0.0 2.0 0.00 0.00 0.00 95 1016.3
20260906034551 69 74 0.0 2.0 0.00 0.00 0.00 95 1016.4
20260906034010 69 78 1.0 2.0 0.00 0.00 0.00 95 1016.4
20260906033514 69 96 0.0 2.0 0.00 0.00 0.00 95 1016.4
20260906033033 69 96 0.0 2.0 0.00 0.00 0.00 96 1016.5
20260906032516 69 69 0.0 2.0 0.00 0.00 0.00 95 1016.4
20260906032019 69 62 1.0 2.0 0.00 0.00 0.00 94 1016.4
20260906031535 69 62 0.0 2.0 0.00 0.00 0.00 94 1016.5
20260906031018 70 63 0.0 2.0 0.00 0.00 0.00 95 1016.5
20260906030521 69 62 0.0 2.0 0.00 0.00 0.00 95 1016.5
20260906030024 70 63 0.0 2.0 0.00 0.00 0.00 94 1016.3
20260906025520 70 63 0.0 2.0 0.00 0.00 0.00 94 1016.4
20260906025014 70 92 0.0 2.0 0.00 0.00 0.00 95 1016.2
20260906024531 70 92 0.0 2.0 0.00 0.00 0.00 94 1016.2
20260906024017 70 92 0.0 2.0 0.00 0.00 0.00 93 1016.3
20260906023516 70 92 0.0 2.0 0.00 0.00 0.00 94 1016.3
20260906023034 70 92 0.0 2.0 0.00 0.00 0.00 94 1016.2
20260906022518 71 92 2.0 2.0 0.00 0.00 0.00 94 1016.1
20260906022014 71 67 0.0 2.0 0.00 0.00 0.00 93 1016.0
20260906021532 71 67 0.0 2.0 0.00 0.00 0.00 93 1016.0
20260906021014 71 67 0.0 2.0 0.00 0.00 0.00 93 1016.0
20260906020518 71 67 0.0 2.0 0.00 0.00 0.00 94 1016.0
20260906020033 71 89 0.0 2.0 0.00 0.00 0.00 93 1016.0
20260906015516 71 125 0.0 2.0 0.00 0.00 0.00 94 1016.0
20260906015015 71 125 0.0 2.0 0.00 0.00 0.00 93 1015.8
20260906014534 71 125 0.0 2.0 0.00 0.00 0.00 93 1015.8
20260906014013 71 125 0.0 3.0 0.00 0.00 0.00 93 1015.7
20260906013516 72 107 1.0 3.0 0.00 0.00 0.00 93 1015.7
20260906013028 72 97 1.0 3.0 0.00 0.00 0.00 94 1015.7
20260906012519 71 97 2.0 3.0 0.00 0.00 0.00 93 1015.7
20260906012018 72 107 0.0 2.0 0.00 0.00 0.00 93 1015.6
20260906011534 72 94 1.0 2.0 0.00 0.00 0.00 93 1015.7
20260906011016 72 83 0.0 1.0 0.00 0.00 0.00 92 1015.6
20260906010516 72 83 0.0 2.0 0.00 0.00 0.00 92 1015.4
20260906010028 72 83 1.0 2.0 0.00 0.00 0.00 92 1015.5
20260906005513 72 83 0.0 2.0 0.00 0.00 0.00 92 1015.4
20260906005016 72 83 1.0 2.0 0.00 0.00 0.00 92 1015.4
20260906004531 73 132 0.0 2.0 0.00 0.00 0.00 91 1015.3
20260906004023 73 132 0.0 2.0 0.00 0.00 0.00 90 1015.3
20260906003518 73 132 0.0 2.0 0.00 0.00 0.00 90 1015.2
20260906003031 73 132 1.0 1.0 0.00 0.00 0.00 89 1015.2
20260906002520 74 132 0.0 2.0 0.00 0.00 0.00 90 1015.1
20260906002014 74 132 0.0 2.0 0.00 0.00 0.00 88 1015.2
20260906001543 74 132 0.0 0.0 0.00 0.00 0.00 88 1015.2
20260906001016 75 132 0.0 1.0 0.00 0.00 0.00 88 1015.2
20260906000516 75 132 0.0 2.0 0.00 0.00 0.00 88 1015.2
20260906000030 75 132 0.0 2.0 0.00 0.00 0.00 89 1015.3
20260905235516 75 132 0.0 2.0 0.00 0.00 0.00 87 1015.2
20260905235019 76 132 0.0 2.0 0.00 0.00 0.00 88 1015.2
20260905234537 76 132 0.0 2.0 0.00 0.00 0.00 86 1015.1
20260905234015 76 132 0.0 2.0 0.00 0.00 0.00 86 1015.1
20260905233516 77 132 0.0 2.0 0.00 0.00 0.00 86 1015.1
20260905233032 77 132 0.0 2.0 0.00 0.00 0.00 85 1015.1
20260905232523 77 132 0.0 3.0 0.00 0.00 0.00 85 1015.1
20260905232019 77 105 1.0 3.0 0.00 0.00 0.00 84 1015.1
20260905231533 78 111 1.0 4.0 0.00 0.00 0.00 84 1015.0
20260905231019 78 90 2.0 3.0 0.00 0.00 0.00 84 1014.9
20260905230516 78 82 1.0 2.0 0.00 0.00 0.00 83 1015.0
20260905230034 79 155 0.0 2.0 0.00 0.00 0.00 83 1015.1
20260905225520 79 126 0.0 2.0 0.00 0.00 0.00 83 1015.1
20260905225018 79 72 0.0 2.0 0.00 0.00 0.00 82 1015.0
20260905224534 79 5 1.0 2.0 0.00 0.00 0.00 82 1015.1
20260905224008 79 65 0.0 2.0 0.00 0.00 0.00 81 1015.1
20260905223518 79 65 0.0 2.0 0.00 0.00 0.00 81 1015.1
20260905223035 79 65 0.0 2.0 0.00 0.00 0.00 82 1015.1
20260905222517 79 65 0.0 2.0 0.00 0.00 0.00 82 1015.1
20260905222008 79 65 0.0 2.0 0.00 0.00 0.00 80 1015.1
20260905221507 79 65 0.0 2.0 0.00 0.00 0.00 80 1015.0
20260905221006 79 119 0.0 2.0 0.00 0.00 0.00 80 1015.1
20260905220510 79 119 0.0 2.0 0.00 0.00 0.00 82 1015.1
20260905220015 79 82 1.0 2.0 0.00 0.00 0.00 80 1015.2
20260905215510 79 82 1.0 2.0 0.00 0.00 0.00 80 1015.3
20260905215014 79 221 0.0 2.0 0.00 0.00 0.00 79 1015.4
20260905214505 79 200 0.0 2.0 0.00 0.00 0.00 79 1015.3
20260905214004 79 113 0.0 2.0 0.00 0.00 0.00 78 1015.4
20260905213504 79 113 0.0 2.0 0.00 0.00 0.00 79 1015.3
20260905213009 79 205 0.0 3.0 0.00 0.00 0.00 79 1015.4
20260905212508 79 188 1.0 6.0 0.00 0.00 0.00 78 1015.4
20260905212011 79 253 2.0 7.0 0.00 0.00 0.00 78 1015.3
20260905211522 80 198 4.0 7.0 0.00 0.00 0.00 77 1015.3
20260905211013 80 217 4.0 5.0 0.00 0.00 0.00 79 1015.2
20260905210504 80 208 4.0 5.0 0.00 0.00 0.00 80 1015.2
20260905210003 80 206 2.0 2.0 0.00 0.00 0.00 80 1015.2
20260905205503 80 173 0.0 2.0 0.00 0.00 0.00 81 1015.2
20260905205008 80 104 0.0 2.0 0.00 0.00 0.00 79 1015.5
20260905204513 80 104 1.0 2.0 0.00 0.00 0.00 79 1015.6
20260905204011 80 251 0.0 2.0 0.00 0.00 0.00 78 1015.7
20260905203514 80 208 0.0 4.0 0.00 0.00 0.00 78 1015.8
20260905203026 80 209 2.0 4.0 0.00 0.00 0.00 77 1015.9
20260905202503 80 246 2.0 4.0 0.00 0.00 0.00 76 1016.1
20260905202008 81 202 2.0 10.0 0.00 0.00 0.00 76 1016.0
20260905201512 81 180 2.0 10.0 0.00 0.00 0.00 74 1016.0
20260905201007 82 191 5.0 9.0 0.00 0.00 0.00 73 1016.1
20260905200509 84 159 5.0 9.0 0.00 0.00 0.00 71 1016.0
20260905200030 85 205 4.0 7.0 0.00 0.00 0.00 68 1016.1
20260905195513 85 171 1.0 4.0 0.00 0.00 0.00 70 1015.8
20260905195015 85 150 1.0 4.0 0.00 0.00 0.00 68 1015.8
20260905194505 85 153 2.0 5.0 0.00 0.00 0.00 71 1015.9
20260905194004 85 13 2.0 7.0 0.00 0.00 0.00 68 1015.7
20260905193507 84 11 3.0 7.0 0.00 0.00 0.00 68 1015.6
20260905193017 83 346 2.0 4.0 0.00 0.00 0.00 72 1015.6
20260905192512 83 34 1.0 3.0 0.00 0.00 0.00 75 1015.7
20260905192013 82 294 1.0 2.0 0.00 0.00 0.00 73 1016.1
20260905191524 82 329 1.0 8.0 0.00 0.00 0.00 70 1016.2
20260905191020 83 18 2.0 8.0 0.00 0.00 0.00 69 1016.4
20260905190504 83 352 2.0 6.0 0.00 0.00 0.00 69 1016.6
20260905190008 83 352 1.0 8.0 0.00 0.00 0.00 71 1016.6
20260905185507 84 15 4.0 8.0 0.00 0.00 0.00 70 1016.5
20260905185012 85 313 2.0 4.0 0.00 0.00 0.00 71 1016.4
20260905184530 85 267 1.0 5.0 0.00 0.00 0.00 71 1016.2
20260905184011 85 334 2.0 5.0 0.00 0.00 0.00 70 1016.0
20260905183513 86 278 1.0 4.0 0.00 0.00 0.00 68 1015.9
20260905183035 87 270 1.0 4.0 0.00 0.00 0.00 66 1015.7
20260905182503 87 216 2.0 5.0 0.00 0.00 0.00 65 1015.9
20260905182006 87 259 3.0 9.0 0.00 0.00 0.00 64 1016.0
20260905181512 88 232 3.0 10.0 0.00 0.00 0.00 64 1015.7
20260905181008 89 194 7.0 10.0 0.00 0.00 0.00 62 1015.8
20260905180510 90 229 4.0 9.0 0.00 0.00 0.00 64 1016.1
20260905180022 89 297 2.0 5.0 0.00 0.00 0.00 64 1016.0
20260905175521 89 43 1.0 6.0 0.00 0.00 0.00 63 1016.0
20260905175015 89 333 3.0 6.0 0.00 0.00 0.00 65 1016.2
20260905174508 89 253 3.0 7.0 0.00 0.00 0.00 63 1016.3
20260905174006 89 259 3.0 7.0 0.00 0.00 0.00 68 1016.5
20260905173506 89 219 2.0 8.0 0.00 0.00 0.00 67 1016.5
20260905173019 88 209 3.0 8.0 0.00 0.00 0.00 67 1016.5
20260905172512 88 298 2.0 7.0 0.00 0.00 0.00 66 1016.4
20260905172014 88 253 3.0 7.0 0.00 0.00 0.00 66 1016.5
20260905171526 88 281 1.0 5.0 0.00 0.00 0.00 70 1016.5
20260905171013 88 102 1.0 7.0 0.00 0.00 0.00 70 1016.6
20260905170506 87 264 4.0 7.0 0.00 0.00 0.00 68 1016.7
20260905170010 87 286 2.0 6.0 0.00 0.00 0.00 66 1016.7
20260905165506 87 296 2.0 8.0 0.00 0.00 0.00 69 1016.8
20260905165013 87 281 1.0 8.0 0.00 0.00 0.00 69 1016.9
20260905164522 87 352 2.0 7.0 0.00 0.00 0.00 69 1017.0
20260905164014 87 40 2.0 7.0 0.00 0.00 0.00 72 1017.0
20260905163517 86 238 1.0 6.0 0.00 0.00 0.00 73 1017.1
20260905163029 86 96 1.0 6.0 0.00 0.00 0.00 73 1017.2
20260905162507 86 225 3.0 6.0 0.00 0.00 0.00 72 1017.3
20260905162010 86 199 2.0 5.0 0.00 0.00 0.00 71 1017.3
20260905161514 86 195 1.0 4.0 0.00 0.00 0.00 72 1017.4
20260905161012 85 344 1.0 6.0 0.00 0.00 0.00 73 1017.5
20260905160513 85 265 2.0 6.0 0.00 0.00 0.00 73 1017.5
20260905160027 85 205 2.0 5.0 0.00 0.00 0.00 75 1017.5
20260905155514 85 202 3.0 5.0 0.00 0.00 0.00 73 1017.5
20260905155016 85 146 1.0 3.0 0.00 0.00 0.00 75 1017.6
20260905154506 85 207 2.0 3.0 0.00 0.00 0.00 74 1017.6
20260905154006 85 128 2.0 3.0 0.00 0.00 0.00 71 1017.7
20260905153511 85 65 1.0 3.0 0.00 0.00 0.00 71 1017.7
20260905153026 84 251 0.0 2.0 0.00 0.00 0.00 73 1017.7
20260905152516 84 201 1.0 2.0 0.00 0.00 0.00 74 1017.8
20260905152015 84 187 1.0 3.0 0.00 0.00 0.00 72 1017.9
20260905151531 83 26 0.0 3.0 0.00 0.00 0.00 74 1017.9
20260905151021 83 227 1.0 2.0 0.00 0.00 0.00 74 1017.9
20260905150511 82 78 0.0 2.0 0.00 0.00 0.00 73 1017.9
20260905150020 82 22 0.0 3.0 0.00 0.00 0.00 74 1017.9
20260905145512 82 352 1.0 3.0 0.00 0.00 0.00 75 1017.9
20260905145010 81 352 0.0 3.0 0.00 0.00 0.00 80 1017.9
20260905144523 81 64 1.0 3.0 0.00 0.00 0.00 78 1018.0
20260905144016 81 350 1.0 2.0 0.00 0.00 0.00 81 1018.0
20260905143516 80 5 1.0 2.0 0.00 0.00 0.00 80 1018.1
20260905143036 80 50 0.0 2.0 0.00 0.00 0.00 81 1018.2
20260905142505 79 49 0.0 2.0 0.00 0.00 0.00 82 1018.2
20260905142012 78 348 0.0 2.0 0.00 0.00 0.00 86 1018.2
20260905141516 77 348 0.0 2.0 0.00 0.00 0.00 86 1018.2
20260905141012 76 348 0.0 2.0 0.00 0.00 0.00 88 1018.3
20260905140515 76 181 0.0 2.0 0.00 0.00 0.00 89 1018.4
20260905140033 75 244 0.0 2.0 0.00 0.00 0.00 91 1018.5
20260905135517 75 211 0.0 2.0 0.00 0.00 0.00 91 1018.6
20260905135018 75 171 0.0 2.0 0.00 0.00 0.00 93 1018.7
20260905134523 74 159 0.0 2.0 0.00 0.00 0.00 96 1018.7
20260905134006 74 317 0.0 1.0 0.00 0.00 0.00 97 1018.8
20260905133508 73 197 0.0 0.0 0.00 0.00 0.00 97 1018.8
20260905133007 72 222 0.0 0.0 0.00 0.00 0.00 97 1018.8
20260905132504 72 254 0.0 0.0 0.00 0.00 0.00 97 1018.9
20260905132007 71 53 0.0 0.0 0.00 0.00 0.00 97 1018.9
20260905131509 71 53 0.0 0.0 0.00 0.00 0.00 97 1018.9
20260905131007 71 83 0.0 0.0 0.00 0.00 0.00 97 1018.8
20260905130508 71 83 0.0 2.0 0.00 0.00 0.00 97 1018.8
20260905130010 71 84 0.0 2.0 0.00 0.00 0.00 97 1018.8
20260905125509 71 121 0.0 2.0 0.00 0.00 0.00 97 1018.8
20260905125017 71 113 0.0 2.0 0.00 0.00 0.00 97 1018.8
20260905124514 71 97 0.0 2.0 0.00 0.00 0.00 97 1018.8
20260905124003 70 97 0.0 2.0 0.00 0.00 0.00 97 1018.7
20260905123507 70 97 0.0 2.0 0.00 0.00 0.00 97 1018.7
20260905123031 70 97 0.0 2.0 0.00 0.00 0.00 97 1018.6
20260905122508 70 97 0.0 2.0 0.00 0.00 0.00 97 1018.6
20260905122012 69 97 1.0 2.0 0.00 0.00 0.00 97 1018.6
20260905121510 69 93 2.0 2.0 0.00 0.00 0.00 96 1018.5
20260905121007 70 109 0.0 0.0 0.00 0.00 0.00 97 1018.4
20260905120507 70 108 0.0 0.0 0.00 0.00 0.00 97 1018.4
20260905120008 70 108 0.0 0.0 0.00 0.00 0.00 97 1018.3
20260905115511 70 148 0.0 0.0 0.00 0.00 0.00 97 1018.3
20260905115014 70 109 0.0 0.0 0.00 0.00 0.00 97 1018.2
20260905114515 69 150 0.0 0.0 0.00 0.00 0.00 97 1018.1
20260905114009 69 105 0.0 0.0 0.00 0.00 0.00 97 1018.0
20260905113509 69 105 0.0 1.0 0.00 0.00 0.00 97 1018.0
20260905113008 69 105 0.0 2.0 0.00 0.00 0.00 97 1017.9
20260905112508 69 105 0.0 2.0 0.00 0.00 0.00 97 1017.7
20260905112005 69 105 1.0 2.0 0.00 0.00 0.00 97 1017.7
20260905111510 69 85 0.0 0.0 0.00 0.00 0.00 97 1017.6
20260905111007 69 85 0.0 1.0 0.00 0.00 0.00 97 1017.5
20260905110506 69 85 0.0 1.0 0.00 0.00 0.00 97 1017.4
20260905110014 69 85 1.0 2.0 0.00 0.00 0.00 97 1017.5
20260905105510 69 85 0.0 3.0 0.00 0.00 0.00 97 1017.4
20260905105009 69 106 2.0 3.0 0.00 0.00 0.00 97 1017.4
20260905104513 69 101 2.0 3.0 0.00 0.00 0.00 97 1017.3
20260905104007 68 81 0.0 2.0 0.00 0.00 0.00 97 1017.4
20260905103509 68 81 0.0 2.0 0.00 0.00 0.00 97 1017.4
20260905103012 68 81 0.0 2.0 0.00 0.00 0.00 97 1017.4
20260905102510 68 81 0.0 2.0 0.00 0.00 0.00 97 1017.3
20260905102008 68 81 0.0 1.0 0.00 0.00 0.00 97 1017.2
20260905101514 68 81 0.0 2.0 0.00 0.00 0.00 97 1017.2
20260905101010 67 81 0.0 2.0 0.00 0.00 0.00 97 1017.2